Dewpoint
50 53 52 51 52 53 53 52 53 52 51 52 52 53 52 51 51 46 44 48 49 51 55 39 39 37 33 39 46 45 38 34 33 33 32 33 31 37 40 38 40 52 53 55 54
52 52 51 52 53 53 53 53 52 53 52 52 53 51 52 51 48 43 47 48 50 50 46 37 35 38 37 39 42 42 38 37 37 33 33 35 35 34 36 36 37 52 53 52 56
52 50 51 51 52 53 53 53 53 53 53 53 53 51 52 51 43 41 46 47 49 49 45 39 34 37 40 37 38 40 39 38 38 35 38 36 36 35 34 35 42 50 52 52 55
52 50 51 51 51 51 52 53 53 53 53 53 52 52 53 48 31 41 46 46 48 42 39 38 34 34 33 33 35 35 36 39 39 39 39 39 40 34 33 34 42 50 53 54 52
51 50 51 51 51 50 51 51 53 53 53 52 51 52 48 36 36 38 49 46 42 40 36 37 37 36 35 35 34 33 35 35 36 41 42 43 42 40 40 39 40 47 54 54 53
50 50 51 51 50 51 51 51 52 51 52 51 51 51 43 34 39 41 42 43 42 39 37 38 36 39 32 29 32 33 32 30 32 34 39 41 41 40 40 40 39 43 47 53 54
50 50 51 51 50 51 52 52 52 51 51 51 50 46 38 35 41 41 41 42 42 41 39 39 39 38 37 30 33 31 26 25 22 28 35 39 37 39 40 40 39 39 40 46 52
51 50 51 51 51 51 52 51 51 51 50 49 50 46 34 41 42 41 42 42 42 42 41 40 39 40 36 35 29 25 24 21 22 20 22 36 32 33 35 38 38 37 37 41 45
51 51 51 51 51 51 51 51 51 50 49 50 46 42 34 46 40 41 42 41 42 42 41 38 39 36 35 30 26 23 16 20 21 22 22 30 28 30 32 30 30 32 35 36 44
51 50 50 51 50 51 53 52 50 49 49 46 43 37 37 36 39 40 41 41 41 41 41 38 36 32 32 29 23 26 25 23 18 18 23 18 17 18 19 19 22 23 27 34 37
51 50 50 50 49 51 50 44 36 33 38 35 35 36 37 40 42 40 42 41 40 39 33 35 30 28 29 30 29 28 27 26 26 27 26 23 20 20 21 20 19 18 21 23 27
50 50 50 50 49 50 44 39 39 38 33 37 38 38 38 42 37 40 43 37 36 32 34 31 29 30 31 29 29 28 26 26 28 28 26 25 24 24 24 23 22 20 19 23 30
50 50 50 49 48 46 44 43 46 44 35 34 38 39 39 42 36 37 41 39 36 34 34 31 30 32 31 29 28 27 27 26 26 28 27 25 22 23 23 26 24 23 20 18 26
49 50 50 48 42 40 42 45 45 44 24 24 33 40 40 39 35 40 42 39 35 35 35 31 32 31 29 27 28 24 30 29 28 26 23 25 18 23 23 19 23 23 22 21 18
49 49 49 48 40 41 44 45 45 41 2 23 28 38 38 34 34 39 42 39 35 35 33 29 32 33 29 30 30 28 32 30 29 28 26 24 18 21 21 18 19 21 20 20 21
49 49 48 44 42 43 45 44 42 22 -2 19 29 28 31 33 34 39 40 40 40 34 34 32 35 35 32 33 33 33 32 30 29 29 14 22 21 19 18 21 30 32 32 33 31
50 47 45 44 41 44 45 40 19 6 19 13 22 28 28 28 31 33 34 34 32 25 22 28 32 34 33 31 33 33 29 10 13 17 8 21 21 20 28 31 31 31 32 33 35
50 46 46 45 46 44 41 23 -0 5 13 27 28 28 26 28 27 28 28 29 35 32 27 24 17 32 33 32 31 34 31 21 12 14 16 22 17 22 31 32 33 32 34 35 36
47 42 42 43 45 43 30 11 7 16 27 27 28 21 22 28 26 26 32 31 35 35 21 25 17 31 35 35 35 30 24 32 20 17 17 20 18 29 30 31 32 32 32 33 36
41 40 41 42 43 39 22 14 15 28 30 29 15 23 15 24 23 24 26 33 32 36 33 28 21 26 33 33 35 35 34 26 21 8 8 16 17 22 28 30 30 30 30 32 35
39 34 40 42 41 29 14 12 25 28 32 26 18 23 25 23 23 24 24 33 30 33 33 33 30 20 30 29 30 32 29 29 28 25 17 10 15 31 31 31 31 30 34 34 35
37 23 39 41 25 28 15 24 28 27 30 32 30 29 26 26 24 24 26 27 26 26 27 35 31 22 18 34 33 33 33 33 24 20 23 22 18 34 30 31 33 33 34 33 35
34 32 40 39 16 17 27 27 28 30 30 30 29 29 29 26 19 26 27 26 25 28 30 31 28 15 15 26 28 27 29 30 30 30 24 21 20 31 30 31 32 32 32 32 33
33 29 35 34 32 25 21 24 26 30 30 30 27 30 28 24 27 24 26 28 28 33 36 33 28 25 19 25 30 23 29 29 29 19 23 24 24 27 29 30 32 32 32 32 32
34 27 31 28 28 28 25 24 25 24 30 30 28 27 26 18 17 21 26 26 28 33 29 30 26 23 26 29 29 30 30 28 24 26 23 24 25 30 31 31 32 32 33 32 32
32 31 31 31 30 29 27 24 23 27 27 27 26 27 27 25 20 20 25 24 23 25 24 27 21 27 19 28 29 27 30 24 22 28 28 28 26 34 35 35 31 32 32 31 31
36 32 32 29 29 28 25 24 24 26 28 27 28 26 24 26 27 28 28 28 27 25 24 24 24 23 14 26 24 23 25 27 29 29 30 22 30 35 33 32 30 30 31 31 30
Lifted_Index
14 14 14 14 13 13 13 13 13 13 13 12 12 12 12 12 12 12 12 12 11 10 10 10 10 9 8 6 3 2 3 3 3 3 3 3 3 3 2 2 1 -1 -1 -2 -1
14 14 14 14 13 13 13 13 13 12 12 12 12 12 12 12 12 12 13 12 11 11 11 11 10 8 8 6 4 3 3 3 3 3 3 3 3 3 3 2 1 -0 -1 -1 -2
14 14 14 14 14 13 13 13 12 12 12 11 12 12 12 12 12 12 13 12 12 11 11 11 10 8 7 6 5 4 3 3 3 3 3 3 3 3 3 3 2 0 -1 -1 -2
14 14 14 14 14 14 14 13 12 12 11 11 11 12 12 12 11 12 13 12 12 12 12 11 10 9 8 7 6 5 4 3 3 3 3 3 3 3 3 3 2 0 -1 -1 -1
14 14 14 14 14 14 14 13 12 12 11 11 12 12 12 12 12 13 13 12 12 12 12 11 10 9 8 7 7 6 5 4 3 3 3 3 3 3 3 3 2 1 -0 -1 -1
14 14 14 14 14 14 14 13 13 12 12 12 12 12 12 12 13 13 12 12 11 11 11 11 10 9 8 8 8 7 6 5 4 3 3 3 3 3 3 3 3 3 1 0 -1
13 13 14 14 14 14 14 13 13 12 12 12 12 12 12 12 12 12 12 11 11 10 10 10 10 9 9 9 8 8 7 6 5 5 4 3 3 3 3 3 3 4 3 2 1
13 13 13 14 14 14 13 13 12 12 12 12 12 12 12 12 12 12 11 10 10 9 9 9 9 9 8 8 8 8 7 6 7 7 6 5 4 5 4 4 4 4 4 3 2
13 13 13 14 14 14 13 13 12 12 12 12 12 11 12 12 12 11 11 9 8 8 8 8 8 8 7 7 6 6 5 6 6 7 7 6 6 6 5 5 5 5 5 4 4
13 13 13 14 14 13 13 13 12 12 12 12 11 11 11 12 11 11 10 8 8 7 6 6 6 6 6 6 5 5 5 5 6 7 7 7 7 6 6 5 5 5 5 4 4
13 13 13 14 14 13 13 13 13 13 12 11 11 11 12 12 11 10 9 8 7 7 6 5 5 5 5 5 5 5 5 5 6 7 7 7 7 7 7 6 6 5 4 4 4
13 13 13 14 14 14 14 14 14 13 12 11 11 11 12 11 11 9 8 7 7 7 6 5 5 5 6 5 5 5 5 5 5 6 6 6 6 6 7 7 7 6 5 4 4
13 13 14 14 14 14 14 14 14 12 11 11 11 11 11 11 10 9 8 7 7 6 6 5 5 5 5 5 5 4 4 4 5 5 6 5 5 5 6 7 7 7 6 5 5
13 13 14 14 14 14 14 14 13 11 9 9 11 11 11 11 10 9 8 7 7 6 6 6 5 5 5 4 4 4 4 4 4 4 4 4 4 4 5 6 7 7 7 6 6
13 13 14 14 14 14 14 13 12 9 6 8 11 11 11 11 10 8 7 7 7 6 6 5 5 5 4 4 4 4 4 4 4 4 3 3 4 4 5 6 6 7 7 7 7
13 14 14 14 14 14 14 13 10 6 5 7 10 11 11 11 10 8 7 7 7 6 5 5 4 4 4 4 4 4 4 3 3 3 3 3 4 5 5 6 6 7 7 7 7
13 14 14 14 14 14 13 11 7 5 6 7 9 10 10 10 10 8 8 7 7 6 5 4 3 4 4 4 4 4 4 2 2 1 2 3 4 4 5 6 6 7 7 7 7
13 14 14 14 14 14 12 8 5 5 7 8 9 9 9 10 10 9 8 7 7 6 4 3 3 3 4 4 4 4 4 3 1 1 2 3 3 4 5 5 6 6 7 7 7
14 14 14 14 14 13 11 7 6 7 8 8 8 7 8 9 9 8 8 7 7 7 5 3 3 4 4 4 4 4 4 3 2 2 1 2 3 3 4 5 5 6 6 6 7
14 13 13 14 14 12 9 7 7 9 10 9 7 7 7 8 8 7 7 7 8 8 7 5 3 4 4 4 4 4 4 4 3 2 1 1 2 3 4 5 5 5 6 6 6
12 11 12 13 12 10 8 7 9 10 11 10 8 8 8 8 8 7 7 7 8 8 8 5 4 3 4 4 4 4 4 4 4 3 2 1 3 4 5 5 6 6 7 7 7
9 9 11 12 9 8 7 8 9 10 11 10 10 9 9 9 8 8 8 8 9 9 8 6 4 3 3 4 4 4 4 4 4 3 3 2 3 5 6 6 7 7 8 9 9
7 8 10 10 8 6 7 8 9 10 10 10 10 10 10 9 9 9 9 9 10 9 8 6 4 3 2 3 4 4 4 5 5 4 3 3 3 5 6 6 7 8 8 9 9
5 6 7 8 7 6 7 7 8 9 10 11 11 11 10 9 9 10 10 10 10 9 9 7 5 3 2 3 3 4 4 5 5 4 3 3 4 5 6 6 7 8 8 8 8
4 4 5 6 6 6 6 7 7 8 10 10 10 10 9 9 9 9 10 10 10 9 9 8 5 3 2 3 3 4 4 5 4 4 4 4 5 6 7 7 7 8 7 7 8
4 5 6 5 5 6 6 6 7 8 9 10 10 10 9 9 9 10 10 10 9 9 9 7 5 3 2 3 3 3 4 4 4 4 4 4 5 7 7 8 8 8 8 8 9
6 7 7 5 5 5 5 6 7 8 9 10 10 10 10 10 11 11 11 11 10 9 8 7 5 3 2 2 2 2 3 4 4 5 4 5 6 7 7 8 8 8 8 9 10